GFSSGP_con_sbcape_081.txt.gz
CAPE
0 0 0 0 0 0 0 0 0 0 3 15 29 38 25 142 207 119 91 54 421 447 854 1816 1753 1865 1816 1783 1682 1695 1754 1682 1592 1467 1321 1228 1042 900 668 325 375 498 415 60 36 26 18 10 11
0 0 0 0 0 0 0 0 0 0 0 17 84 162 378 468 195 190 218 168 443 408 519 1683 1660 1740 1776 1712 1684 1747 1796 1733 1576 1545 1411 1324 1001 858 566 371 334 521 519 93 60 34 9 2 15
0 0 0 0 0 0 0 0 0 0 15 24 6 48 120 753 262 314 231 173 382 387 365 1203 1478 1365 1373 1415 1634 1654 1616 1512 1493 1450 1527 1236 966 802 544 311 316 517 493 31 5 0 0 0 0
0 0 0 0 0 0 0 0 0 0 2 41 38 45 1 73 21 51 84 484 258 304 196 875 980 882 827 952 1363 1548 1494 1302 1345 1382 1501 1196 929 704 462 299 251 465 381 2 0 0 0 0 0
0 0 0 0 0 0 0 0 0 0 20 140 56 39 10 33 0 541 953 660 30 14 32 94 817 456 812 1100 1497 1335 1247 1173 1286 1361 1327 1027 827 665 455 250 187 213 56 0 0 0 7 0 0
0 0 0 0 0 0 0 0 12 50 85 97 26 87 69 0 28 572 583 408 123 133 47 138 315 537 698 1137 1001 958 913 1015 1193 1262 1181 822 683 541 420 259 154 28 0 0 0 0 0 0 0
0 0 0 0 0 0 0 0 21 59 78 54 87 100 4 18 254 592 399 182 429 273 39 10 23 11 40 323 341 479 583 877 1098 1108 837 543 435 398 360 203 70 0 0 0 0 0 0 0 0
0 0 0 0 0 0 0 0 0 32 39 31 3 0 0 34 426 261 267 103 138 99 9 1 16 1 3 0 188 178 359 682 858 847 572 300 279 281 195 16 0 0 0 0 0 0 0 1 0
0 0 0 0 0 0 0 0 0 0 32 8 4 0 0 527 277 203 199 112 86 75 47 38 1 0 0 0 2 89 362 521 519 556 330 150 129 36 0 0 0 0 0 0 0 0 1 8 0
0 0 0 0 0 0 0 0 0 1 9 0 0 0 4 528 294 156 162 88 74 41 14 2 1 0 2 2 11 4 120 410 410 344 215 78 26 0 0 0 0 0 0 0 0 0 0 0 0
0 0 0 0 0 0 0 0 0 0 0 0 0 0 536 187 117 44 87 35 13 2 4 3 2 0 1 0 0 5 30 45 187 125 59 2 2 0 0 0 0 0 0 0 0 0 0 0 0
0 0 0 0 0 0 0 3 240 6 97 11 0 129 358 66 40 17 3 3 1 2 2 4 6 4 1 2 0 1 0 0 33 45 20 8 0 0 0 0 0 0 0 0 0 0 0 0 0
0 0 0 0 0 0 0 0 81 110 229 502 721 591 209 3 17 0 2 1 5 1 2 6 6 2 0 0 0 0 0 0 9 54 11 19 8 0 0 0 0 0 0 0 0 0 0 0 0
0 0 0 0 0 0 0 9 0 0 209 0 9 16 50 0 0 2 2 3 3 3 2 1 7 4 0 0 4 6 21 43 82 31 22 6 1 0 0 0 0 0 0 0 0 0 0 0 0
0 0 0 0 0 0 0 0 0 0 83 21 13 36 0 0 0 1 1 1 3 3 2 0 1 6 3 0 0 3 0 0 0 8 0 0 0 0 0 0 0 0 0 0 0 0 0 0 0
0 0 0 0 0 0 0 0 0 0 5 0 88 33 0 0 0 8 1 1 3 4 4 3 2 1 0 0 0 0 0 12 2 0 1 11 1 0 0 0 0 0 0 0 0 0 0 0 0
0 0 0 0 0 0 0 0 0 0 0 0 116 7 0 0 0 7 3 2 2 3 5 6 3 1 0 0 0 0 0 4 20 24 14 6 0 0 0 0 0 0 0 0 0 0 0 0 0
0 0 0 0 0 0 0 0 0 0 0 17 6 0 0 0 0 7 4 2 4 3 2 3 2 0 0 0 0 0 0 0 0 5 17 3 1 5 0 0 0 0 0 0 0 0 0 0 0
0 0 0 0 0 0 0 0 0 0 0 0 0 0 0 0 0 1 3 4 1 1 0 1 0 0 0 0 0 0 5 0 0 0 2 20 16 22 8 0 0 0 0 0 0 0 0 0 0
0 0 0 0 0 0 0 0 0 0 0 0 0 0 0 0 0 3 0 4 7 3 0 0 0 0 0 0 0 0 0 0 0 0 0 0 9 35 4 0 0 0 0 0 0 0 0 0 0
0 0 0 0 0 0 0 0 0 0 0 0 0 0 0 0 0 0 1 0 0 0 0 0 0 0 0 0 0 0 0 0 0 0 0 0 0 6 0 0 0 0 0 0 0 0 0 0 0
0 0 0 0 0 0 0 0 0 0 0 0 0 0 0 0 0 0 0 0 0 0 1 0 0 0 0 0 0 0 0 0 0 0 0 0 0 0 0 0 0 0 0 0 0 0 0 0 0
0 0 0 0 0 0 0 0 0 0 0 0 0 0 0 0 0 0 0 0 0 0 0 0 0 0 0 0 0 0 0 0 0 0 0 0 0 0 0 5 0 0 0 0 0 0 0 0 0
0 0 0 0 0 0 0 0 0 0 0 0 0 0 0 0 0 0 0 0 0 0 0 0 0 0 0 0 0 0 0 0 0 0 0 0 0 0 0 4 11 6 0 0 0 0 0 0 0
0 0 0 0 0 0 0 0 0 0 0 0 3 0 0 0 0 0 0 0 0 0 0 0 0 0 0 0 0 0 0 0 0 0 0 0 0 0 20 15 14 2 0 0 0 0 0 0 0
0 0 0 0 0 0 0 0 0 0 0 0 1 0 0 0 0 0 0 0 0 0 0 0 0 0 0 0 0 0 0 0 0 0 0 0 0 0 1 19 44 18 0 0 0 0 0 0 0
0 0 0 0 0 0 0 0 0 0 0 0 0 0 0 0 0 0 0 0 0 0 0 0 0 0 0 0 0 0 0 0 0 0 0 0 0 0 0 6 14 0 0 0 0 0 0 0 0
0 0 0 0 0 0 0 0 0 0 0 0 0 0 0 0 0 0 0 0 0 0 0 0 0 0 0 0 0 0 0 0 0 0 0 0 0 0 0 0 0 0 0 0 0 0 1 0 0
0 0 0 0 0 0 0 0 0 0 0 0 0 0 0 0 0 0 0 0 0 0 0 0 0 0 0 0 0 0 0 3 17 6 0 0 0 0 0 0 0 0 0 0 0 1 2 0 0
0 0 0 0 0 0 0 0 0 0 0 0 0 0 0 2 0 0 0 0 0 0 0 0 0 0 0 0 0 0 0 0 2 0 0 0 0 0 0 0 0 0 0 0 0 0 0 0 0

GFSSGP_con_sbcape_087.txt.gz
CAPE
0 0 0 0 0 0 0 0 0 0 0 0 0 3 11 39 74 32 69 284 835 1698 1793 1734 1730 1877 1819 2074 2140 2070 2122 2056 1946 1752 1723 1584 1489 1367 1083 863 723 610 348 16 15 21 26 34 29
0 0 0 0 0 0 0 0 0 0 0 0 0 16 116 90 188 250 405 153 470 1751 1916 1687 1555 1699 1915 2002 2169 2163 2249 2067 1893 1882 1747 1514 1226 1041 907 824 626 527 371 12 17 17 13 14 12
0 0 0 0 0 0 0 0 0 0 0 0 0 9 20 329 311 261 234 210 215 1205 1624 1743 1530 1322 1698 1871 2161 2174 2093 1915 1799 1720 1652 1346 1088 1093 1031 830 586 573 510 164 16 4 3 6 11
0 0 0 0 0 0 0 0 0 0 0 0 0 6 0 1 9 2 416 913 614 951 435 314 1087 1214 1720 1949 2084 2081 1921 1714 1623 1567 1440 1161 1174 1148 920 706 564 528 480 257 43 2 0 2 3
0 0 0 0 0 0 0 0 0 0 0 6 0 6 0 7 40 43 762 746 870 789 432 330 449 721 1000 1934 2022 1876 1721 1536 1434 1398 1139 1056 1138 1001 781 626 635 545 435 429 31 0 0 5 5
0 0 0 0 0 0 0 0 0 0 0 6 5 9 31 18 106 480 690 594 481 543 385 148 402 698 464 947 1504 1490 1425 1356 1217 1107 876 929 894 755 728 591 379 212 295 273 5 0 0 0 0
0 0 0 0 0 0 0 0 0 0 2 4 6 24 93 32 217 770 670 555 543 191 379 307 267 207 66 241 655 949 1126 1124 963 773 623 589 507 452 494 254 96 169 230 123 0 0 0 0 0
0 0 0 0 0 0 0 0 0 0 0 1 32 141 73 0 597 728 531 443 539 192 205 270 287 451 212 60 53 377 911 852 713 523 369 255 283 266 160 13 59 258 324 93 0 0 0 0 0
0 0 0 0 0 0 0 0 0 0 0 7 20 37 0 320 594 461 391 327 250 200 118 71 90 183 248 61 129 184 487 525 507 362 153 158 386 209 13 0 24 208 153 40 0 0 0 0 0
0 0 0 0 0 0 0 0 0 0 0 0 0 8 42 537 413 297 225 239 139 90 52 7 14 24 5 166 119 211 197 400 345 281 299 242 210 57 0 0 0 71 124 37 9 0 0 0 0
0 0 0 0 0 0 0 0 0 0 0 0 0 1 12 462 403 184 44 105 133 96 19 7 4 3 0 1 11 181 75 186 205 170 199 118 39 1 0 0 0 0 51 24 11 0 0 0 0
0 0 0 0 0 0 0 0 0 0 0 17 0 0 87 376 210 24 0 25 41 74 58 10 2 1 0 2 3 42 83 75 104 102 114 71 3 0 0 0 0 0 0 56 23 0 0 0 0
0 0 0 0 0 0 0 0 0 0 0 103 90 125 473 271 75 1 0 4 11 21 3 2 1 0 0 0 6 10 4 77 63 64 119 22 0 0 2 0 0 0 0 0 0 0 0 0 0
0 0 0 0 0 0 0 0 0 0 76 554 571 553 352 138 35 1 3 3 3 1 15 2 1 0 0 4 7 26 15 43 19 51 60 22 0 0 0 0 0 0 0 0 0 0 0 0 0
0 0 0 0 0 0 0 0 0 0 87 16 140 46 32 16 12 0 4 1 0 2 4 3 2 0 0 0 1 3 30 11 13 9 68 20 0 0 0 0 0 0 0 0 0 0 0 0 0
0 0 0 0 0 0 0 0 0 0 74 69 0 0 1 5 3 0 1 0 4 3 3 4 4 0 1 0 1 0 3 4 14 3 34 46 27 5 0 0 0 0 0 0 0 0 0 0 0
0 0 0 0 0 0 0 0 0 0 3 63 46 1 1 1 2 2 0 3 5 5 3 4 4 0 0 0 5 6 0 24 4 9 51 53 31 4 1 0 0 0 0 0 0 0 0 0 0
0 0 0 0 0 0 0 0 0 0 0 0 0 9 0 0 0 7 7 4 7 9 2 3 5 1 0 0 0 1 4 3 2 0 55 89 77 47 28 7 0 0 0 0 0 0 0 0 0
0 0 0 0 0 0 0 0 0 0 0 0 0 0 0 0 0 10 10 6 7 10 4 1 2 1 0 5 7 5 1 17 1 1 38 52 50 43 56 8 0 0 0 0 0 0 0 0 0
0 0 0 0 0 0 0 0 0 0 0 0 0 0 0 0 0 4 6 12 6 7 5 3 2 0 0 3 1 0 0 0 4 6 9 13 16 29 51 32 9 0 1 1 0 0 0 0 0
0 0 0 0 0 0 0 0 0 0 0 0 0 0 0 0 0 0 2 12 5 6 4 3 2 2 0 0 0 0 0 0 5 6 2 27 31 28 12 23 33 48 27 6 9 0 0 1 0
0 0 0 0 0 0 0 0 0 0 0 0 0 0 0 0 0 0 1 3 12 2 4 2 1 1 2 0 0 0 0 0 0 0 7 3 20 41 27 38 64 74 61 53 14 0 0 1 0
0 0 0 0 0 0 0 0 0 0 0 0 0 0 0 0 0 0 0 1 0 3 2 4 0 0 0 0 0 0 0 1 0 0 0 5 55 70 70 102 117 94 79 46 31 0 0 0 6
0 0 0 0 0 0 0 0 0 0 0 0 0 0 0 0 0 0 0 0 2 2 1 1 1 1 0 0 0 0 0 0 0 0 0 2 9 16 31 70 84 74 59 60 44 29 15 3 0
0 0 0 0 0 0 0 0 0 0 0 0 0 0 0 0 0 0 0 0 0 2 3 0 0 4 1 0 1 0 0 0 0 0 0 0 0 0 0 20 33 36 61 56 87 91 42 2 1
0 0 0 0 0 0 0 0 0 0 0 0 0 0 0 0 0 0 0 0 0 0 1 1 1 3 5 1 0 0 0 0 0 0 0 0 0 0 0 0 4 13 25 48 74 149 130 19 22
0 0 0 0 0 0 0 0 0 0 0 0 0 0 0 5 0 0 0 0 0 0 1 1 0 0 3 2 0 0 0 0 0 0 0 0 0 0 0 0 0 5 10 50 83 172 109 48 31
0 0 0 0 0 0 0 0 0 0 0 0 0 0 0 0 0 2 0 0 0 0 0 2 0 2 1 1 0 0 0 0 0 0 0 0 0 0 0 0 0 0 6 83 101 64 45 20 2
0 0 0 0 0 0 0 0 0 0 0 0 0 0 0 0 0 8 12 4 0 0 0 1 3 0 0 0 0 0 0 0 0 0 0 0 0 0 0 0 0 0 0 0 2 12 12 0 0
0 0 0 0 0 0 0 0 0 0 0 0 0 0 0 0 0 0 16 2 0 0 0 0 0 0 0 0 0 0 0 0 0 0 0 0 0 0 0 0 0 0 0 0 0 1 0 0 0

GFSSGP_con_sbcape_090.txt.gz
CAPE
0 0 0 0 0 0 0 0 0 0 0 0 0 0 12 17 1 0 214 294 1221 1746 1815 1564 1808 1874 1965 2020 2020 1965 2090 2103 1971 1689 1702 1742 1873 1786 1561 1346 1167 966 716 114 42 57 32 30 18
0 0 0 0 0 0 0 0 0 0 0 0 0 1 37 9 77 259 455 758 410 1392 1861 1786 1682 1689 1577 2001 2089 2103 2241 2150 1863 1848 1878 1855 1842 1706 1440 1159 834 660 426 14 20 51 31 24 18
0 0 0 0 0 0 0 0 0 0 0 0 0 21 23 2 406 406 734 643 789 865 1914 1824 1527 1441 1732 1890 2096 1838 2227 1946 1808 1812 1960 1930 1765 1506 1226 803 499 443 309 11 12 15 23 10 13
0 0 0 0 0 0 0 0 0 0 0 0 0 7 20 58 247 419 462 817 831 1010 1470 1255 664 1326 1551 1886 1865 1479 1573 1749 1738 1768 1832 1760 1598 1397 984 648 446 421 327 15 14 15 12 9 3
0 0 0 0 0 0 0 0 0 0 0 0 0 3 75 131 189 281 487 834 1119 994 1421 1101 258 809 518 747 1038 1418 1683 1641 1653 1671 1571 1568 1493 1245 800 597 560 547 403 12 3 4 2 3 1
0 0 0 0 0 0 0 0 0 0 0 0 6 22 62 319 311 511 861 1011 1076 1231 1291 1140 387 939 568 442 30 563 1435 1490 1445 1409 1424 1458 1263 981 733 613 645 560 273 6 4 2 1 0 0
0 0 0 0 0 0 0 0 0 0 0 0 13 5 11 360 429 1024 1011 1068 670 882 926 920 928 1023 208 8 0 20 1191 1317 1255 1096 1162 1065 857 663 731 572 499 430 99 0 1 2 1 0 0
0 0 0 0 0 0 0 0 0 0 0 38 34 4 0 328 750 998 976 999 755 528 697 738 701 418 452 201 120 71 667 791 898 845 857 701 605 538 305 232 341 212 51 0 0 0 0 0 0
0 0 0 0 0 0 0 0 0 0 0 12 41 58 82 426 739 769 776 967 918 512 379 207 433 325 146 155 308 129 112 381 465 621 526 412 810 459 235 127 218 145 28 0 0 0 0 0 0
0 0 0 0 0 0 0 0 0 0 0 0 0 52 74 548 584 582 676 754 582 720 474 173 196 446 177 216 273 201 143 202 702 878 783 685 636 392 148 163 218 100 0 0 0 0 0 0 0
0 0 0 0 0 0 0 0 0 0 0 2 0 0 143 512 603 607 511 528 342 397 340 177 46 83 49 240 269 324 117 143 231 464 592 550 484 306 55 179 257 93 0 0 0 0 0 0 0
0 0 0 0 0 0 0 0 0 0 0 0 6 20 117 530 592 575 406 235 179 179 233 50 34 32 12 4 66 113 78 116 97 111 137 629 202 100 50 87 102 54 0 0 0 0 4 0 0
0 0 0 0 0 0 0 0 0 0 0 0 17 2 185 565 617 187 75 34 47 54 67 44 7 11 8 1 2 10 110 126 84 84 103 125 184 53 4 54 63 66 48 39 19 21 17 0 0
0 0 0 0 0 0 0 0 0 0 0 10 125 207 626 527 265 9 6 1 12 27 12 6 2 1 4 2 4 3 25 76 75 75 52 62 93 60 3 14 0 34 96 102 41 24 1 0 0
0 0 0 0 0 0 0 0 0 0 0 48 364 464 359 215 72 4 4 9 14 15 5 5 3 0 0 1 7 41 2 70 55 20 20 19 101 21 12 2 0 0 0 13 10 8 0 0 0
0 0 0 0 0 0 0 0 0 0 0 29 84 145 143 120 104 2 6 16 17 7 13 5 2 2 1 1 4 15 80 5 17 5 12 26 54 23 6 13 0 0 0 0 0 0 0 0 0
0 0 0 0 0 0 0 0 0 0 0 4 42 143 188 129 117 1 5 23 13 7 6 6 2 3 2 2 2 1 3 2 11 20 6 59 65 28 5 11 0 0 0 0 0 0 0 0 0
0 0 0 0 0 0 0 0 0 0 0 0 34 128 193 165 125 0 3 16 17 9 11 7 7 3 1 5 1 9 7 14 11 21 30 97 70 44 11 11 8 1 0 0 0 0 0 0 0
0 0 0 0 0 0 0 0 0 0 0 0 15 40 162 199 80 0 2 9 10 7 10 10 10 8 0 0 3 3 10 17 13 19 59 80 68 70 99 41 36 4 27 30 5 0 0 0 0
0 0 0 0 0 0 0 0 0 0 0 0 1 56 160 217 35 0 2 16 9 8 7 9 14 7 8 2 0 5 5 9 4 15 76 112 114 90 147 102 69 85 43 27 7 0 3 6 0
0 0 0 0 0 0 0 0 0 0 0 0 0 0 95 259 126 0 0 6 4 14 12 7 8 9 7 21 2 0 0 1 2 10 38 94 111 115 95 95 89 90 82 75 72 86 134 131 34
0 0 0 0 0 0 0 0 0 0 0 0 0 4 59 208 157 7 0 0 12 22 18 15 7 9 12 2 1 1 1 8 2 1 12 49 102 99 85 87 83 101 98 92 134 145 181 166 171
0 0 0 0 0 0 0 0 0 0 0 0 0 0 41 204 192 62 3 0 2 7 25 25 12 10 8 10 3 0 0 43 14 14 2 9 33 32 38 67 83 93 117 126 172 161 179 157 191
0 0 0 0 0 0 0 0 0 0 0 0 0 0 12 144 195 91 19 0 0 2 6 27 24 13 9 10 7 0 0 0 12 6 21 19 3 10 27 49 99 121 124 127 186 227 216 208 198
0 0 0 0 0 0 0 0 0 0 0 0 0 0 22 108 187 167 33 1 0 3 7 13 13 12 9 11 12 5 4 2 33 42 14 18 30 40 58 86 105 138 211 293 349 316 319 364 344
0 0 0 0 2 0 0 0 0 0 0 0 0 0 1 91 209 273 95 55 0 0 5 5 4 5 9 18 18 29 25 17 22 46 59 36 56 94 80 110 122 160 202 267 229 234 244 255 305
0 0 0 0 0 0 1 1 0 0 0 0 0 0 0 66 213 331 236 101 52 0 0 7 8 9 6 10 16 9 24 21 16 15 37 52 25 46 103 62 64 50 47 50 69 107 169 284 405
0 0 0 0 0 0 0 0 0 0 0 0 0 0 2 131 218 279 383 209 146 33 0 0 0 0 4 15 13 13 14 16 17 15 10 11 11 1 10 16 25 17 9 27 86 188 209 239 322
0 0 0 2 2 1 2 0 0 0 0 0 0 0 6 190 313 287 312 330 216 117 13 0 0 0 0 1 5 9 9 10 10 12 14 4 3 1 0 0 11 21 14 75 148 197 168 92 31
0 0 0 2 0 9 5 1 0 0 0 0 2 0 0 73 257 326 311 317 319 227 74 0 0 0 0 0 1 2 4 6 7 4 6 11 6 7 3 3 1 2 17 59 133 43 0 0 1

GFSSGP_con_sbcape_093.txt.gz
CAPE
0 0 0 0 0 0 0 0 0 0 0 0 0 0 0 0 0 9 428 562 903 1123 1761 1699 1844 2031 2343 2172 1852 2059 2154 2208 2052 1863 1888 1863 1859 1756 1680 1559 1354 1231 964 234 28 67 41 9 6
0 0 0 0 0 0 6 0 0 0 0 0 0 0 0 4 17 21 264 1161 788 882 1780 1977 1721 1894 2176 1847 1985 2072 2266 2293 2041 1949 2024 2082 1859 1870 1724 1479 1164 1008 841 248 138 70 30 10 18
0 0 0 0 0 0 0 0 0 0 0 0 0 0 0 0 22 60 937 745 725 880 1382 2100 1575 1696 1851 1738 1748 1857 2042 1691 1862 1890 2083 2163 2054 1928 1616 1219 877 746 745 405 168 84 30 5 12
0 0 0 0 0 0 0 0 0 0 0 0 0 0 7 0 50 263 605 716 830 739 1009 1378 905 1551 1728 1575 1994 1939 1653 1208 1698 1773 2028 2187 2001 1741 1298 830 637 614 566 356 125 29 8 0 0
0 0 0 0 0 0 0 0 0 0 0 0 0 0 10 50 139 281 449 839 1113 1148 962 1808 627 561 919 1265 698 562 1088 1046 1511 1723 1873 1917 1765 1362 1010 715 529 340 333 183 12 16 5 0 0
0 0 0 0 0 0 0 0 0 0 0 0 0 3 3 283 354 477 921 1093 1237 1341 1358 1492 955 539 974 925 34 0 103 483 1183 1605 1626 1564 1320 1058 821 638 502 296 148 49 12 8 2 0 0
0 0 0 0 0 0 0 0 0 0 0 0 7 7 7 142 464 1022 962 1119 1138 1182 1186 1275 1364 1270 734 381 179 27 128 17 368 1217 1241 1108 898 735 736 769 567 103 31 3 5 7 1 0 0
0 0 0 0 0 0 0 0 0 0 0 0 0 0 2 410 779 1072 942 1026 1069 1077 1073 1146 1033 1362 1333 811 33 40 7 90 312 774 934 756 667 635 738 543 255 51 1 2 5 3 0 0 0
0 0 0 0 0 0 0 0 0 0 0 0 0 0 34 89 676 729 779 1036 1121 846 766 779 692 1017 787 504 78 48 2 16 122 611 590 560 839 838 652 391 134 40 1 2 3 1 0 0 0
0 0 0 0 0 0 0 0 0 0 0 0 0 21 30 146 499 634 728 787 777 1101 630 263 415 657 590 181 217 93 0 2 16 1048 794 1020 1045 798 513 231 74 23 4 1 0 0 0 0 0
0 0 0 0 0 0 0 0 0 0 0 0 0 0 18 181 407 697 641 685 556 594 600 259 194 328 380 271 219 114 25 20 105 939 697 796 1032 675 663 397 103 1 0 0 0 0 0 0 0
0 0 0 0 0 0 0 0 0 0 0 0 0 0 30 87 469 674 641 477 311 192 459 321 83 121 229 253 281 133 120 0 194 430 550 684 749 538 432 384 93 0 0 0 0 0 6 0 0
0 0 0 0 0 0 0 0 0 0 0 0 0 19 28 74 527 844 494 205 202 29 34 86 64 102 95 99 74 203 107 99 47 41 258 471 350 371 225 273 182 36 10 0 0 1 4 1 0
0 0 0 0 0 0 0 0 0 0 0 0 0 50 72 439 608 653 216 201 0 4 18 23 16 24 10 84 9 12 203 92 61 14 57 98 137 144 205 288 240 147 62 29 8 18 5 0 0
0 0 0 0 0 0 0 0 0 0 0 0 0 189 248 436 421 307 137 49 0 12 14 16 6 4 1 4 8 56 122 93 58 23 95 90 43 125 220 324 288 203 194 278 91 26 0 0 0
0 0 0 0 0 0 0 0 0 0 0 0 9 158 234 206 266 294 85 0 2 18 19 8 6 3 5 9 11 13 31 104 57 33 57 42 44 147 226 182 196 258 254 101 48 21 0 0 0
0 0 0 0 0 0 0 0 3 0 0 0 0 20 130 169 350 275 132 0 9 18 14 12 5 8 17 12 9 11 48 94 26 11 0 2 12 83 162 110 119 129 75 87 59 2 4 7 1
0 0 0 0 0 0 0 0 0 0 1 0 0 9 109 257 239 265 55 1 10 8 10 5 7 13 12 5 5 3 19 14 2 0 0 0 2 50 124 32 6 11 0 0 1 12 27 0 0
0 0 0 0 0 0 0 0 0 0 0 0 0 2 25 231 261 154 33 1 6 8 15 16 6 7 8 11 6 1 3 3 1 0 0 0 18 41 85 51 15 5 12 0 9 47 62 28 0
0 0 0 0 0 0 0 0 0 0 0 0 0 3 9 182 348 122 95 0 4 6 9 8 15 5 9 9 11 7 2 5 6 5 9 15 38 65 78 65 51 42 64 49 92 100 72 28 0
0 0 0 0 0 0 0 0 0 0 0 0 0 0 1 92 380 171 103 13 4 4 8 12 10 9 9 8 11 16 10 10 14 38 33 32 56 80 104 92 97 99 70 170 185 163 127 99 16
0 0 0 0 0 1 2 0 0 0 0 0 0 0 0 22 311 170 117 52 8 11 12 3 13 5 14 22 12 6 4 13 35 26 33 62 95 97 64 111 138 135 215 245 107 148 166 294 172
0 0 0 0 0 2 0 0 0 0 0 0 0 0 0 26 261 190 153 35 22 4 8 17 8 6 17 7 10 12 7 1 3 21 45 74 22 28 38 116 168 145 182 239 216 280 349 316 270
0 0 0 0 2 3 1 0 0 0 9 2 0 0 0 33 237 213 145 5 31 7 5 21 16 13 14 18 23 18 0 0 7 2 6 33 24 6 63 170 148 262 245 224 305 338 329 287 288
0 0 4 7 14 11 5 0 0 4 0 0 0 0 0 44 299 299 189 20 10 2 3 5 10 15 11 14 26 26 17 19 3 5 0 12 24 28 54 84 147 259 277 276 282 308 375 412 369
0 0 2 0 32 35 10 0 0 0 1 0 0 0 0 98 344 371 253 102 10 7 2 9 4 6 17 11 14 14 7 0 0 15 31 3 4 0 11 26 39 190 236 258 329 373 587 519 459
0 0 0 6 3 21 2 7 0 0 0 0 0 0 0 96 325 414 321 304 48 20 25 14 1 5 11 16 21 17 2 1 2 26 91 63 14 12 33 47 110 136 253 250 322 433 439 419 449
0 0 1 8 26 25 28 4 3 0 1 0 0 0 0 3 260 374 438 504 243 30 13 4 0 0 2 9 21 21 16 31 32 27 36 72 65 75 102 115 172 198 213 305 383 258 337 301 380
0 0 0 6 23 43 38 11 0 0 0 8 3 2 0 40 292 396 478 511 501 190 25 3 0 0 0 2 5 12 12 14 29 32 70 53 54 41 53 120 115 153 174 219 260 313 321 314 371
4 0 0 12 21 52 63 39 3 0 0 20 7 4 0 122 383 399 426 611 547 477 162 27 0 0 0 2 28 7 20 68 67 103 35 110 115 138 100 78 66 71 147 202 179 174 158 237 271

GFSSGP_con_sbcape_096.txt.gz
CAPE
0 0 0 0 0 0 0 0 0 0 0 0 0 0 0 0 0 6 530 893 890 1296 1784 1714 1894 2256 2191 2044 1910 1989 2034 2094 1886 1984 1862 1838 1767 1692 1577 1544 1427 1359 1209 773 615 433 266 153 183
0 0 0 0 0 0 0 0 0 0 0 0 0 0 0 0 2 72 1174 1050 899 782 1815 2090 1806 2148 2304 2084 1970 2023 2221 2280 1996 2051 1929 1894 1860 1708 1685 1583 1276 1179 1056 527 442 337 151 29 144
0 0 0 0 0 0 0 0 0 0 0 0 0 0 0 0 2 39 879 571 673 764 1255 2189 1696 1908 2264 2094 2033 1962 1998 2039 1935 1947 2024 1942 1920 1844 1732 1403 1120 999 967 448 277 215 31 26 9
0 0 0 0 0 0 0 0 0 0 0 0 0 0 0 10 0 212 627 552 827 735 1319 1494 1564 1659 1880 2119 2002 1543 1381 1158 1516 1830 1892 1944 2055 1868 1526 1178 1066 1101 1014 619 213 70 1 0 0
0 0 0 0 0 0 0 0 0 0 0 0 0 0 0 0 39 220 450 830 1098 1337 1599 1777 1281 1099 982 1635 1578 887 265 224 792 1250 1185 1528 1669 1559 1144 951 920 909 820 647 157 34 13 0 0
0 0 0 0 0 0 0 0 0 0 0 0 0 0 0 95 92 539 992 1181 1570 1534 1584 1600 1086 817 813 1133 533 338 247 0 270 564 794 1400 1341 1039 848 798 735 618 520 306 167 40 3 0 0
0 0 0 0 0 0 0 0 0 0 0 0 0 0 0 198 767 1090 990 1314 1390 1320 1571 1791 1804 1364 807 773 178 138 149 31 73 3 57 1065 788 607 681 665 550 357 196 122 67 2 0 0 0
0 0 0 0 0 0 0 0 0 0 0 0 0 0 0 671 995 1096 1070 1073 1419 1177 1424 1351 1302 1462 1425 486 58 25 119 45 0 0 17 399 346 436 546 378 267 181 115 22 4 0 0 0 0
0 0 0 0 0 0 0 0 0 0 0 0 0 0 0 101 640 628 868 1388 1592 1091 1230 905 966 1241 1325 901 103 39 125 7 0 1 20 253 289 396 453 121 101 80 19 12 3 0 0 0 0
0 0 0 0 0 0 0 0 0 0 0 0 0 10 7 8 203 473 744 1096 1366 1488 1085 474 647 767 782 521 195 44 62 53 13 11 0 296 327 473 371 47 26 16 12 7 1 0 0 0 0
0 0 0 0 0 0 0 0 0 0 0 0 0 0 0 6 77 400 571 714 900 1079 707 424 343 536 541 243 160 42 4 2 4 1 0 273 382 341 157 8 11 4 2 0 0 0 0 0 0
0 0 0 0 0 0 0 0 0 0 0 0 0 0 0 0 37 218 728 609 333 749 813 472 369 217 197 263 102 45 3 0 3 1 21 240 264 310 65 0 0 0 0 0 0 0 0 0 0
0 0 0 0 0 0 0 0 0 0 0 0 0 0 0 0 8 739 690 468 313 341 471 453 87 114 90 68 96 87 55 8 38 54 77 181 143 229 79 0 0 0 0 0 0 0 0 0 0
0 0 0 0 0 0 0 0 0 0 0 0 0 0 0 0 72 710 759 223 228 15 134 116 25 40 32 74 55 92 49 1 2 43 181 112 107 107 72 0 0 0 0 0 0 0 0 0 0
0 0 0 0 0 0 0 0 0 0 0 0 0 0 0 0 337 435 597 126 25 15 5 26 5 0 0 29 23 10 64 8 5 0 2 114 99 87 25 27 0 3 0 0 1 0 0 0 0
0 0 0 0 0 0 0 0 0 0 0 0 0 0 0 34 70 231 248 43 0 3 3 25 4 1 0 23 4 0 27 5 1 1 14 7 8 50 51 92 49 26 8 0 22 2 0 0 0
0 0 0 0 0 0 0 0 0 2 0 0 0 0 10 46 112 356 147 58 3 10 11 11 6 3 1 4 12 8 2 15 4 2 11 21 13 40 117 99 116 80 95 70 15 0 0 0 0
0 0 0 0 0 0 0 0 0 0 7 0 0 0 10 60 102 438 130 14 0 0 4 7 0 12 8 6 5 19 36 44 50 2 1 7 3 60 89 28 29 39 24 13 2 0 0 0 0
0 0 0 0 0 0 2 0 0 0 0 1 0 1 0 58 195 352 116 1 0 1 10 6 9 6 7 2 0 3 19 29 9 8 0 5 0 13 12 1 0 0 0 0 8 0 0 0 0
0 0 0 0 0 0 0 0 0 0 0 0 0 0 14 38 462 166 70 0 0 5 6 11 1 9 10 3 3 0 1 0 0 0 0 0 0 0 2 6 6 1 0 0 0 0 0 0 0
0 2 2 0 0 0 0 0 0 0 0 0 0 0 1 19 427 184 103 0 0 2 5 9 11 11 1 10 3 2 1 2 1 1 0 0 0 0 0 26 17 27 11 11 25 2 7 1 0
0 0 3 2 0 0 0 2 0 0 0 0 0 0 0 0 483 220 124 1 0 1 3 3 12 18 0 5 1 1 1 0 0 0 0 0 0 4 38 50 62 33 47 48 40 38 41 46 5
0 2 6 14 1 0 0 1 0 0 0 0 0 0 0 0 446 274 103 38 0 3 12 4 5 12 2 0 1 0 0 0 0 0 0 0 0 0 15 46 67 74 76 58 83 73 69 79 173
5 19 14 0 3 2 0 0 0 0 0 0 1 0 0 2 379 266 140 25 0 0 3 11 7 9 5 14 0 0 2 2 1 0 0 0 3 15 21 41 85 92 48 53 71 62 87 149 204
5 18 16 34 31 2 0 0 0 0 0 3 1 0 4 26 369 241 117 8 19 0 1 6 11 3 7 9 16 3 1 2 2 2 3 2 0 2 0 0 8 44 35 42 41 61 89 158 134
11 6 46 29 68 31 41 6 1 0 0 0 0 0 23 89 448 259 151 7 36 0 1 1 12 6 5 13 11 5 0 2 2 4 2 4 0 0 0 0 0 42 31 44 74 115 129 155 171
37 29 3 46 43 2 0 0 47 0 0 0 0 0 56 99 312 305 272 38 8 2 0 1 7 9 2 12 18 12 4 8 6 1 0 0 0 0 0 0 0 13 38 51 87 104 116 157 115
3 3 46 51 27 11 0 0 2 4 3 0 1 4 20 98 291 332 315 219 33 22 0 0 0 2 1 1 10 10 1 0 0 0 0 0 0 0 0 0 0 0 0 53 78 65 105 68 46
0 0 0 10 41 24 18 30 9 0 1 1 22 53 33 47 231 400 369 420 111 43 9 6 0 0 0 3 7 9 4 0 0 0 0 2 0 0 0 0 0 1 4 5 39 44 69 78 70
49 0 0 0 3 42 24 0 0 4 0 0 0 0 9 31 245 379 414 605 407 86 14 13 0 0 0 2 3 10 7 1 2 2 1 2 7 0 0 2 25 13 14 44 48 57 51 59 38

GFSSGP_con_sbcape_099.txt.gz
CAPE
0 0 0 0 0 0 0 0 0 0 0 0 0 0 0 0 0 0 203 547 1459 1548 1597 1958 2001 1883 1850 1918 1922 1990 2072 1963 2088 2005 1859 1730 1599 1518 1410 1291 1282 1566 1526 900 625 657 699 695 735
0 0 0 0 0 0 0 0 0 0 0 0 0 0 0 0 313 749 785 636 1199 1665 1551 1663 2080 2004 1985 1937 2007 2047 2212 2053 2080 2026 1969 1835 1728 1607 1570 1485 1439 1496 1233 702 713 649 660 649 610
0 0 0 0 0 0 0 0 0 0 0 0 0 0 0 0 100 779 601 665 395 1329 1792 1726 1948 2161 2122 2012 1998 2071 2202 1959 1949 1927 2058 1969 1819 1833 1701 1359 1158 1215 1198 657 476 515 435 480 347
0 0 0 0 0 0 0 0 0 0 0 0 0 0 0 0 1 524 265 360 323 978 1840 1582 1703 2055 2219 2164 2096 2132 2165 1891 1839 1828 1907 1971 1843 1917 1587 1187 989 1018 988 823 193 233 274 92 57
0 0 0 0 0 0 0 0 0 0 0 0 0 0 0 10 234 107 330 600 737 1270 1473 1469 1582 1772 2092 2371 2258 1831 1500 1725 1302 981 1048 1021 865 1476 1284 997 913 836 733 573 385 212 69 10 0
0 0 0 0 0 0 0 0 0 0 0 0 0 0 0 15 44 417 601 884 906 945 1449 1235 1297 1272 1335 1624 2121 1108 689 800 634 513 555 365 778 1033 1112 1050 928 776 636 426 249 78 42 0 0
0 0 0 0 0 0 0 0 0 0 0 0 0 0 4 257 284 492 755 743 737 820 926 1111 1052 1051 1009 1165 898 491 340 664 465 442 28 79 335 516 932 858 811 692 518 292 119 37 3 3 0
0 0 0 0 0 0 0 0 0 0 0 0 0 0 0 566 518 347 636 685 683 779 908 937 1064 928 661 609 310 232 79 206 188 122 76 26 2 243 501 519 534 472 338 166 46 14 12 0 0
0 0 0 0 0 0 0 0 0 0 0 0 0 0 4 716 589 347 397 538 510 570 698 516 624 749 743 95 37 38 95 46 43 39 40 2 0 187 281 250 270 239 161 65 20 10 0 0 0
0 0 0 0 0 0 0 0 0 0 0 0 0 0 401 429 190 128 362 524 808 544 467 334 375 534 656 261 20 0 9 0 0 0 0 0 1 132 180 150 125 80 52 37 3 0 0 0 0
0 0 0 0 0 0 0 0 0 0 0 0 0 0 0 60 50 66 108 237 731 614 286 99 118 322 321 86 0 0 3 12 0 1 1 0 14 159 40 8 4 0 5 0 0 0 0 0 0
0 0 0 0 0 0 0 0 0 0 0 0 0 0 0 0 0 18 92 68 518 413 86 61 22 84 36 0 0 0 1 17 4 3 1 0 62 75 8 0 1 1 0 0 0 0 0 0 0
0 0 0 0 0 0 0 0 0 0 0 0 0 0 0 0 0 11 86 31 77 417 162 22 0 0 0 8 4 1 1 1 6 2 1 1 75 25 0 0 0 0 0 0 0 0 0 0 0
0 0 0 0 0 0 0 0 0 0 0 0 0 0 0 0 2 320 79 36 25 111 70 0 0 2 0 1 15 15 0 2 1 21 1 8 94 7 0 0 0 0 0 0 0 0 0 0 0
0 0 0 0 0 0 0 0 0 0 0 0 0 0 0 0 9 351 44 1 0 0 0 0 0 0 0 2 1 9 0 0 16 9 0 70 68 5 0 0 0 0 0 0 0 0 0 0 0
0 0 0 0 0 0 0 0 0 0 0 0 0 0 0 0 0 153 6 0 0 0 0 0 0 0 0 1 0 0 0 0 1 18 5 4 58 4 0 0 0 0 0 0 0 0 0 0 0
0 0 0 0 0 0 0 0 0 0 0 0 0 0 0 0 2 0 0 0 0 0 0 0 0 0 0 0 0 0 1 0 0 0 0 10 3 0 0 0 0 0 0 0 0 0 0 0 0
0 0 0 0 0 0 0 0 0 0 0 0 0 0 0 0 54 4 0 0 0 0 0 0 0 0 1 0 0 0 1 1 1 1 2 0 0 0 3 0 0 0 0 0 0 0 0 0 0
0 0 0 0 0 0 0 0 0 0 0 0 0 0 0 2 79 0 0 0 0 0 0 0 0 0 0 0 5 1 12 4 1 0 0 0 0 0 0 0 0 0 0 0 0 0 0 0 0
0 0 0 0 0 0 0 0 0 0 0 0 0 0 0 100 8 0 0 0 0 0 0 0 0 0 4 0 0 0 16 14 1 0 0 0 0 0 0 0 0 0 0 0 0 0 0 0 0
0 0 0 0 0 0 0 0 0 0 0 0 0 0 0 110 3 0 0 0 0 0 2 0 0 0 4 0 1 1 0 0 0 4 1 0 0 0 0 0 0 0 0 0 0 0 0 0 0
0 0 0 0 0 0 0 0 0 0 0 0 0 0 0 88 4 0 0 0 0 0 1 0 0 0 0 0 1 0 0 0 0 0 0 0 0 0 0 0 0 0 0 0 0 0 0 0 0
0 0 0 0 0 0 0 0 0 0 0 0 0 0 0 72 0 0 0 0 0 0 1 0 1 1 0 0 0 0 1 0 1 1 0 0 0 0 0 0 0 0 0 13 9 11 22 6 0
0 0 0 0 2 0 0 0 0 0 0 0 0 0 0 77 18 20 0 0 0 0 0 2 1 0 0 0 0 0 0 0 0 1 0 0 0 0 0 0 0 2 1 27 61 41 39 21 41
0 0 9 2 0 0 0 0 0 0 0 0 0 0 0 111 20 0 0 0 0 0 1 2 1 5 2 1 0 0 0 0 0 0 0 0 0 0 0 0 0 0 7 70 60 25 41 10 20
0 0 1 0 0 0 11 0 0 0 0 0 0 0 60 84 54 0 0 0 0 0 0 2 0 2 6 3 0 0 0 0 0 0 0 0 0 0 0 0 0 13 43 51 43 36 18 29 27
0 0 0 15 38 19 3 0 0 0 0 0 0 0 49 76 64 1 0 0 0 0 0 0 0 0 5 6 3 0 0 0 0 0 0 0 0 0 0 0 0 3 29 49 47 37 26 22 29
0 8 7 19 2 0 1 18 3 0 0 0 0 0 9 133 29 4 0 0 0 0 0 0 0 1 1 6 6 1 0 0 0 0 0 0 0 0 0 0 0 0 14 24 20 8 24 10 9
0 4 0 0 0 0 0 0 15 3 0 0 0 0 0 75 96 45 0 0 0 0 0 0 0 0 0 0 7 5 0 0 0 0 0 0 0 0 0 0 0 0 0 0 7 8 4 4 4
2 0 0 0 0 1 0 0 53 6 0 0 0 0 0 0 19 52 20 0 0 0 0 0 0 0 0 0 0 5 0 0 0 0 0 0 0 0 0 0 0 0 0 0 0 0 0 0 0

GFSSGP_con_sbcape_102.txt.gz
CAPE
0 0 0 0 0 0 0 0 0 0 0 0 0 0 0 0 0 0 2 751 1300 1414 1750 1592 1593 1764 1833 1908 1949 1991 1983 2107 2082 1942 1776 1675 1575 1485 1393 1397 1441 1655 1664 1127 1126 1285 1102 901 1007
0 0 0 0 0 0 0 0 0 0 0 0 0 0 0 0 233 266 199 1235 1430 1372 1721 1790 1548 1757 1957 2008 2051 2122 2171 2233 2176 1985 1846 1742 1672 1553 1520 1521 1413 1484 1510 677 864 1165 1031 1018 881
0 0 0 0 0 0 0 0 0 0 0 0 0 0 0 0 449 389 370 1053 1650 1415 1522 1896 1655 1718 1946 2004 2073 2138 2151 2170 2096 1947 1895 1837 1747 1702 1741 1659 1429 1168 1030 501 1051 953 985 874 668
0 0 0 0 0 0 0 0 0 0 0 0 0 0 0 0 485 552 322 257 1484 1454 1468 1665 1759 1750 1971 2070 2144 2230 2207 2101 2015 1904 1879 1824 1908 1880 1747 1482 1309 1216 1290 986 941 1110 874 571 431
0 0 0 0 0 0 0 0 0 0 0 0 0 0 0 9 58 79 90 306 870 1374 1407 1325 1652 1882 2087 2191 2210 2200 2132 2005 1977 1613 1295 1008 1029 1051 1143 1264 1224 1111 1008 838 878 726 361 193 93
0 0 0 0 0 0 0 0 0 0 0 0 0 0 0 0 50 86 296 431 844 1156 1169 1191 1364 1786 2160 2245 2145 2023 1753 1627 1509 996 246 77 298 222 477 1079 990 766 624 455 585 332 124 29 0
0 0 0 0 0 0 0 0 0 0 0 0 0 0 0 0 23 307 491 420 589 1048 945 950 1067 1204 1232 1494 2140 1679 1327 1325 802 750 220 161 268 143 362 507 722 676 500 485 378 142 45 1 0
0 0 0 0 0 0 0 0 0 0 0 0 0 0 0 7 140 420 336 352 254 555 823 727 706 760 702 853 918 732 608 642 243 413 161 35 52 59 246 354 654 554 431 350 226 80 0 0 0
0 0 0 0 0 0 0 0 0 0 0 0 0 0 0 171 117 347 327 296 261 396 410 518 646 506 432 240 350 176 428 413 275 210 56 0 0 73 195 201 444 461 316 214 64 13 0 0 0
0 0 0 0 0 0 0 0 0 0 0 0 0 114 326 270 192 295 378 476 284 366 282 154 162 310 275 71 13 48 92 176 123 39 31 2 0 0 1 116 271 312 211 95 19 8 0 0 0
0 0 0 0 0 0 0 0 0 0 0 0 0 81 434 357 103 158 184 434 379 234 143 41 61 272 267 40 0 0 0 0 0 0 0 0 0 32 28 104 129 70 70 3 1 0 0 0 0
0 0 0 0 0 0 0 0 0 0 0 0 0 0 232 215 27 18 39 82 454 313 74 0 13 105 36 0 1 0 1 1 0 0 0 0 3 3 81 83 0 0 0 0 0 0 0 0 0
0 0 0 0 0 0 0 0 0 0 0 0 0 0 5 0 0 0 0 37 235 194 40 0 0 5 0 0 1 1 0 1 4 1 1 0 48 1 73 0 0 0 0 0 0 0 0 0 0
0 0 0 0 0 0 0 0 0 0 0 0 0 0 0 0 0 0 0 30 214 94 10 0 0 0 0 0 4 2 1 1 5 3 1 1 16 81 11 0 0 0 0 0 0 0 0 0 0
0 0 0 0 0 0 0 0 0 0 0 0 0 0 0 0 0 29 1 12 109 29 0 0 0 0 0 0 1 1 1 1 1 3 2 5 24 0 0 0 0 0 0 0 0 0 0 0 0
0 0 0 0 0 0 0 0 0 0 0 0 0 0 0 0 105 31 19 0 6 0 0 0 0 0 0 0 0 2 0 1 3 23 17 5 46 0 0 0 0 0 0 0 0 0 0 0 0
0 0 0 0 0 0 0 0 0 0 0 0 0 0 0 0 74 49 2 0 0 0 0 0 0 0 0 0 0 3 0 2 2 12 3 55 2 0 0 0 0 0 0 0 0 0 0 0 0
0 0 0 0 0 0 0 0 0 0 0 0 0 0 0 0 182 13 0 0 0 0 0 0 0 0 0 0 0 0 1 0 1 1 0 20 0 0 0 0 0 0 0 0 0 0 0 0 0
0 0 0 0 0 0 0 0 0 0 0 0 0 0 0 0 23 0 0 0 0 0 0 0 0 0 0 0 0 1 2 1 1 2 6 7 0 0 0 0 0 0 0 0 0 0 0 0 0
0 0 0 0 0 0 0 0 0 0 0 0 0 0 0 31 0 0 0 0 0 0 0 0 0 0 0 0 0 0 1 2 0 1 0 0 0 0 0 0 0 0 0 0 0 0 0 0 0
0 0 0 0 0 0 0 0 0 0 0 0 0 0 0 22 0 0 0 0 0 0 0 0 0 0 1 0 0 1 4 8 1 1 0 0 0 0 0 0 0 0 0 0 0 0 0 0 0
0 0 0 0 0 0 0 0 0 0 0 0 0 0 0 7 0 0 0 0 0 0 0 0 0 0 0 0 2 1 3 18 0 0 0 0 0 0 0 0 0 0 0 0 0 0 0 0 0
0 0 0 0 0 0 0 0 0 0 0 0 0 0 0 38 0 0 0 0 0 0 0 0 0 0 0 0 0 0 1 0 0 2 1 0 0 0 0 1 0 0 0 0 0 0 0 0 0
0 0 0 0 0 0 0 0 0 0 0 0 0 0 0 29 14 0 0 0 0 0 0 0 0 0 0 0 1 0 0 0 0 1 1 1 0 0 0 0 0 0 0 0 0 6 0 0 0
0 0 0 0 0 0 0 0 0 0 0 0 0 0 0 0 26 0 0 0 0 0 0 0 0 0 0 0 1 0 0 0 0 0 0 1 1 0 0 0 0 0 0 0 0 0 14 16 12
0 0 0 0 0 0 0 0 0 0 0 0 0 0 0 2 5 0 0 0 0 0 0 0 0 0 1 0 0 0 0 0 0 0 0 0 0 0 0 0 0 0 0 0 0 9 24 24 9
0 0 0 0 4 1 0 0 0 0 0 0 0 0 1 7 25 5 1 0 0 0 0 0 0 0 2 1 0 0 0 0 0 0 0 0 0 2 0 0 0 0 0 0 2 13 29 17 15
0 0 1 0 0 0 0 0 0 4 0 0 0 0 1 63 58 30 3 0 0 0 0 0 0 0 0 4 0 0 0 0 0 0 0 0 0 1 0 0 0 0 0 0 3 25 39 18 8
0 0 1 3 5 0 0 0 0 16 1 0 0 0 0 0 37 31 19 0 0 0 0 0 0 0 2 3 1 0 0 0 0 0 0 0 0 0 0 0 0 0 0 0 1 15 20 21 14
0 0 2 15 1 0 0 0 24 5 13 0 0 0 0 0 0 20 14 23 0 0 0 0 0 0 0 0 3 0 0 0 0 0 0 0 0 0 0 0 0 0 0 0 0 2 4 2 2

GFSSGP_con_sbcape_105.txt.gz
CAPE
0 0 0 0 0 0 0 0 0 0 0 0 0 0 0 0 0 0 0 921 1086 1343 1474 1341 1553 1727 1735 1846 1832 1977 2012 2098 2086 1960 1893 1942 1961 1904 1886 1950 1909 1849 1716 1338 1364 1555 1377 1139 1176
0 0 0 0 0 0 0 0 0 0 0 0 0 0 0 0 23 70 314 846 1119 1403 1512 1337 1473 1685 1826 1885 1985 2043 2183 2161 2040 1994 1925 1895 1901 1884 1905 1924 1793 1563 1004 1546 1453 1389 1112 1168 1127
0 0 0 0 0 0 0 0 0 0 0 0 0 0 0 0 109 120 64 1209 1118 1393 1583 1445 1444 1610 1847 1934 2015 2120 2206 2136 2010 1952 1931 1842 1787 1777 1856 1798 1688 1498 990 900 1510 1368 1057 967 703
0 0 0 0 0 0 0 0 0 0 0 0 0 0 0 0 35 159 200 1406 1240 1173 1542 1655 1382 1518 1851 2014 2077 2149 2237 2112 1995 1951 1849 1875 1740 1900 1853 1603 1421 1279 1121 1494 1396 1006 890 632 450
0 0 0 0 0 0 0 0 0 0 0 0 0 0 0 6 53 166 462 1528 1241 1068 1125 1396 1322 1489 1887 2145 2169 2113 2122 1991 1869 1426 953 826 1206 1204 1234 1210 1313 1246 1141 1333 1050 748 644 404 177
0 0 0 0 0 0 0 0 0 0 0 0 0 0 0 0 177 54 3 755 874 1080 1061 1171 1356 1507 1804 2043 2083 2046 1974 1876 1586 1007 893 876 623 572 612 708 903 995 737 628 595 477 444 96 15
0 0 0 0 0 0 0 0 0 0 0 0 0 0 0 0 0 54 117 351 844 923 891 875 1145 1578 1821 1902 1883 1837 1753 1547 985 623 569 389 386 306 325 257 419 479 592 628 445 335 140 9 0
0 0 0 0 0 0 0 0 0 0 0 0 0 0 0 0 25 192 191 192 452 584 540 614 690 898 1045 1381 1705 1566 1459 1023 455 234 103 207 171 133 31 182 269 338 507 482 343 180 32 0 0
0 0 0 0 0 0 0 0 0 0 0 0 0 0 0 0 238 230 174 12 51 241 339 295 429 436 323 477 667 834 657 536 375 214 81 115 128 171 183 120 174 282 368 352 252 81 0 0 0
0 0 0 0 0 0 0 0 0 0 0 0 0 16 0 141 314 349 233 143 53 144 124 230 246 191 60 158 211 83 224 230 261 135 73 28 46 71 58 66 140 210 287 213 131 6 0 0 0
0 0 0 0 0 0 0 0 0 0 0 0 0 0 72 138 284 263 243 136 108 118 62 31 20 25 43 13 11 38 105 104 71 65 21 1 25 35 0 7 92 106 124 23 3 0 0 0 0
0 0 0 0 0 0 0 0 0 0 0 0 0 0 86 99 190 191 183 79 161 55 30 0 0 40 73 1 0 0 1 1 0 1 1 0 0 0 2 88 139 38 0 0 0 0 0 0 0
0 0 0 0 0 0 0 0 0 0 0 0 0 0 90 138 115 115 105 21 109 78 1 0 0 5 3 1 1 0 1 1 1 0 0 0 0 7 15 93 56 6 0 0 0 0 0 0 0
0 0 0 0 0 0 0 0 0 0 0 0 0 0 0 62 110 3 0 0 67 119 0 0 0 0 0 1 1 1 1 1 1 1 0 0 0 6 37 65 44 2 0 0 0 0 0 0 0
0 0 0 0 0 0 0 0 0 0 0 0 0 0 0 0 0 0 0 3 74 88 0 0 0 0 0 0 1 1 1 1 2 2 1 0 8 10 78 77 12 2 0 0 0 0 0 0 0
0 0 0 0 0 0 0 0 0 0 0 0 0 0 0 0 0 0 0 3 84 6 0 0 0 0 0 0 1 5 1 1 1 2 2 2 21 33 16 6 0 0 0 0 0 0 0 0 0
0 0 0 0 0 0 0 0 0 0 0 0 0 0 0 0 0 0 0 0 24 0 0 0 0 0 0 0 0 4 1 0 1 4 3 4 7 47 5 0 0 0 0 0 0 0 0 0 0
0 0 0 0 0 0 0 0 0 0 0 0 0 0 0 0 0 0 0 0 4 0 0 0 0 0 0 0 0 2 1 1 7 6 12 0 23 1 0 0 0 0 0 0 0 0 0 0 0
0 0 0 0 0 0 0 0 0 0 0 0 0 0 0 0 0 0 0 0 0 0 0 0 0 0 0 0 1 1 11 1 1 1 2 8 0 0 0 0 0 0 0 0 0 0 0 0 0
0 0 0 0 0 0 0 0 0 0 0 0 0 0 0 0 0 0 0 0 0 0 0 0 0 0 0 0 0 0 1 1 0 1 2 1 0 0 0 0 0 0 0 0 0 0 0 0 0
0 0 0 0 0 0 0 0 0 0 0 0 0 0 0 0 0 0 0 0 0 0 0 0 0 0 0 0 0 0 0 9 1 1 7 3 1 0 0 0 0 0 0 0 0 0 0 0 0
0 0 0 0 0 0 0 0 0 0 0 0 0 0 0 0 0 0 1 0 0 0 0 0 0 0 0 0 0 1 1 11 8 1 1 3 0 0 0 0 0 0 0 0 0 0 0 0 0
0 0 0 0 0 0 0 0 0 0 0 0 0 0 0 0 0 2 0 0 0 0 0 0 0 0 0 0 1 0 13 13 5 1 1 0 2 0 0 0 0 0 0 0 0 0 0 0 0
0 0 0 0 0 0 0 0 0 0 0 0 0 0 0 0 0 0 0 0 0 0 0 0 0 0 0 0 0 1 1 1 8 2 1 1 0 1 0 0 0 0 0 0 0 0 0 0 0
0 0 0 0 0 0 0 0 0 0 0 0 0 0 0 0 0 0 0 0 0 1 0 0 0 0 0 0 0 0 0 0 0 1 1 1 0 1 1 0 0 4 10 21 15 9 8 0 0
0 0 0 0 0 0 0 0 0 0 0 0 0 0 0 0 0 0 0 0 0 0 0 0 0 0 1 0 0 0 0 0 0 0 0 0 0 0 1 1 0 0 0 4 15 26 21 1 4
0 0 0 0 0 0 0 0 0 0 0 0 0 0 0 18 4 0 0 0 0 0 0 0 0 0 0 0 0 0 0 0 0 0 0 0 0 1 0 0 0 0 0 0 0 1 0 5 10
0 0 0 0 0 0 0 0 0 0 0 14 3 0 0 0 0 0 0 0 0 0 0 0 0 0 0 0 0 0 0 0 0 0 0 0 1 1 0 0 0 1 1 1 0 1 0 7 10
0 0 0 0 0 0 0 0 0 0 15 8 5 0 0 0 0 0 0 0 0 0 0 0 0 0 0 0 0 0 0 0 0 0 0 0 0 1 1 0 0 0 0 0 0 0 0 1 4
0 0 0 0 0 0 0 0 0 0 6 0 0 0 0 0 0 0 0 0 0 0 0 0 0 0 0 0 0 0 0 0 0 0 0 0 0 0 0 1 0 0 0 0 0 0 0 4 11